This demonstration page uses our WeatherBlox Daily Observations layout. Learn more.

Left ArrowRight Arrow

Hourly Observations for June 28, 2017

Temp ( °F °C ) Dew Point ( °F °C ) Humidity (%) Winds ( mph kmh ) Pressure ( in mb ) Visibility ( mi km ) Precip ( " mm )
12:56 am 00:56 Clear 75 23.7 65 18.3 72 72 SSE 18 30 29.72 1006 10 16 0.00 0.00
1:31 am 01:31 Mostly Clear 75 24 64 18 69 69 SSW 13 20 29.74 1007 10 16 0.00 0.00
1:38 am 01:38 Partly Cloudy 75 24 64 18 69 69 WSW 18 30 29.77 1008 10 16 0.00 0.00
1:44 am 01:44 Partly Cloudy with Light Rain 75 24 64 18 69 69 WSW 15 24 29.80 1009 10 16 0.00 0.00
1:51 am 01:51 Mostly Cloudy with Strong Thunderstorms 73 23 66 19 78 78 SW 13 20 29.81 1009 4 6 0.00 0.00
1:54 am 01:54 Mostly Cloudy with Strong Thunderstorms 73 23 66 19 78 78 WSW 14 22 29.80 1009 3 5 0.00 0.00
1:56 am 01:56 Mostly Cloudy with Strong Thunderstorms 73 22.5 66 18.7 79 79 SW 12 19 29.80 1009 3 4 0.13 3.30
2:00 am 02:00 Mostly Cloudy with Strong Thunderstorms 72 22 64 18 78 78 SW 12 19 29.79 1009 3 5 0.00 0.00
2:01 am 02:01 Mostly Cloudy with Thunderstorms 70 21 64 18 83 83 SW 10 17 29.79 1009 5 8 0.00 0.00
2:12 am 02:12 Partly Cloudy with Thunderstorms 70 21 64 18 83 83 SW 14 22 29.80 1009 10 16 0.00 0.00
2:27 am 02:27 Mostly Cloudy with Strong Thunderstorms 68 20 64 18 88 88 WSW 15 24 29.79 1009 7 11 0.00 0.00
2:53 am 02:53 Clear with Rain and Nearby Thunderstorms 68 20 64 18 88 88 SW 15 24 29.77 1008 9 14 0.00 0.00
2:56 am 02:56 Mostly Cloudy with Rain and Scattered Storms 67 19.4 64 17.5 89 89 SW 14 22 29.77 1008 9 14 0.16 4.06
3:06 am 03:06 Mostly Cloudy with Thunderstorms 68 20 63 17 83 83 SW 8 13 29.77 1008 10 16 0.00 0.00
3:29 am 03:29 Cloudy with Strong Thunderstorms 68 20 63 17 83 83 WSW 7 11 29.81 1010 6 10 0.00 0.00
3:35 am 03:35 Cloudy with Strong Thunderstorms 66 19 63 17 88 88 W 16 26 29.84 1011 3 5 0.00 0.00
3:37 am 03:37 Cloudy with Strong Thunderstorms 66 19 63 17 88 88 W 18 30 29.86 1011 3 4 0.00 0.00
3:40 am 03:40 Cloudy with Strong Thunderstorms 66 19 64 18 94 94 W 22 35 29.85 1011 2 4 0.00 0.00
3:45 am 03:45 Cloudy with Strong Thunderstorms 66 19 64 18 94 94 W 26 43 29.84 1011 2 2 0.00 0.00
3:53 am 03:53 Mostly Cloudy with Strong Thunderstorms 66 19 64 18 94 94 WNW 20 31 29.83 1010 2 3 0.00 0.00
3:56 am 03:56 Mostly Cloudy with Strong Thunderstorms 66 18.8 64 17.6 93 93 WNW 10 17 29.81 1010 2 4 0.56 14.22
3:57 am 03:57 Mostly Cloudy with Strong Thunderstorms 66 19 64 18 94 94 W 6 9 29.80 1009 3 4 0.00 0.00
3:59 am 03:59 Mostly Cloudy with Strong Thunderstorms 66 19 64 18 94 94 W 6 9 29.80 1009 4 6 0.00 0.00
4:10 am 04:10 Mostly Cloudy with Thunderstorms 66 19 64 18 94 94 ESE 6 9 29.76 1008 10 16 0.00 0.00
4:25 am 04:25 Cloudy with Thunderstorms 66 19 64 18 94 94 S 12 19 29.75 1007 10 16 0.00 0.00
4:30 am 04:30 Cloudy with Thunderstorms 66 19 64 18 94 94 S 17 28 29.75 1007 10 16 0.00 0.00
4:37 am 04:37 Mostly Cloudy with Thunderstorms 64 18 63 17 94 94 S 15 24 29.73 1007 10 16 0.00 0.00
4:52 am 04:52 Mostly Cloudy with Thunderstorms 64 18 63 17 94 94 SE 17 28 29.72 1006 10 16 0.00 0.00
4:56 am 04:56 Mostly Cloudy with Thunderstorms 64 18 62 16.7 92 92 SE 16 26 29.70 1006 10 16 0.04 1.02
5:05 am 05:05 Mostly Cloudy with Thunderstorms 64 18 63 17 94 94 S 24 39 29.74 1007 10 16 0.00 0.00
5:07 am 05:07 Mostly Cloudy 64 18 63 17 94 94 S 22 35 29.74 1007 10 16 0.00 0.00
5:56 am 05:56 Mostly Sunny 65 18.5 62 16.8 90 90 SSE 15 24 29.72 1006 10 16 0.00 0.03
6:56 am 06:56 Mostly Cloudy 66 18.7 63 17.2 91 91 S 8 13 29.71 1006 10 16 0.00 0.00
7:56 am 07:56 Partly Cloudy 68 20.1 63 17.3 84 84 SSE 12 19 29.74 1007 10 16 0.00 0.00
8:56 am 08:56 Mostly Cloudy 71 21.5 65 18.5 83 83 S 10 17 29.73 1007 10 16 0.00 0.00
9:56 am 09:56 Mostly Cloudy 74 23.5 68 19.8 80 80 S 20 31 29.71 1006 10 16 0.00 0.00
10:56 am 10:56 Mostly Sunny 79 26 70 21 74 74 S 15 24 29.68 1005 10 16 0.00 0.00
11:56 am 11:56 Mostly Sunny 81 27 70 21.3 71 71 SSW 15 24 29.67 1005 10 16 0.00 0.00
12:56 pm 12:56 Cloudy 83 28.3 70 21.3 66 66 SW 13 20 29.66 1005 10 16 0.00 0.00
1:56 pm 13:56 Mostly Cloudy 85 29.4 71 21.6 63 63 SW 14 22 29.65 1004 10 16 0.00 0.00
2:56 pm 14:56 Mostly Cloudy 86 30 71 21.9 62 62 WSW 9 15 29.65 1004 10 16 0.00 0.00
3:56 pm 15:56 Mostly Sunny 89 31.4 72 22.1 58 58 WSW 10 17 29.63 1004 10 16 0.00 0.00
4:56 pm 16:56 Sunny 90 32.1 70 21.3 53 53 W 18 30 29.60 1002 10 16 0.00 0.00
5:56 pm 17:56 Sunny 90 32.1 67 19.7 48 48 W 10 17 29.62 1003 10 16 0.00 0.00
6:56 pm 18:56 Sunny 89 31.4 66 18.7 47 47 W 8 13 29.62 1003 10 16 0.00 0.00
7:56 pm 19:56 Sunny 85 29.2 64 17.7 50 50 NW 9 15 29.62 1003 10 16 0.00 0.00
8:56 pm 20:56 Mostly Cloudy 76 24.7 66 18.8 70 70 NW 6 9 29.63 1003 10 16 0.00 0.00
9:56 pm 21:56 Mostly Cloudy 75 24 67 19.3 75 75 Calm 29.66 1004 10 16 0.00 0.00
10:56 pm 22:56 Mostly Clear 70 20.9 66 19 89 89 Calm 29.67 1005 10 16 0.00 0.00
11:56 pm 23:56 Clear 70 21.2 67 19.5 90 90 SE 6 9 29.67 1005 10 16 0.00 0.00

Powered by AerisWeather